Index of /20260411/WXO-DD/model_gdps/15km/12/237
Name Last modified Size Description
Parent Directory -
20260411T12Z_MSC_GDPS_AirTemp_AGL-120m_LatLon0.15_PT237H.grib2 2026-04-11 16:58 903K
20260411T12Z_MSC_GDPS_AirTemp_AGL-2m_LatLon0.15_PT237H.grib2 2026-04-11 16:58 1.0M
20260411T12Z_MSC_GDPS_AirTemp_AGL-40m_LatLon0.15_PT237H.grib2 2026-04-11 16:58 921K
20260411T12Z_MSC_GDPS_AirTemp_AGL-80m_LatLon0.15_PT237H.grib2 2026-04-11 16:58 910K
20260411T12Z_MSC_GDPS_AirTemp_IsbL-0001_LatLon0.15_PT237H.grib2 2026-04-11 16:58 642K
20260411T12Z_MSC_GDPS_AirTemp_IsbL-0005_LatLon0.15_PT237H.grib2 2026-04-11 16:58 741K
20260411T12Z_MSC_GDPS_AirTemp_IsbL-0500_LatLon0.15_PT237H.grib2 2026-04-11 16:58 1.0M
20260411T12Z_MSC_GDPS_AirTemp_IsbL-0700_LatLon0.15_PT237H.grib2 2026-04-11 16:58 951K
20260411T12Z_MSC_GDPS_AirTemp_IsbL-0850_LatLon0.15_PT237H.grib2 2026-04-11 16:58 1.1M
20260411T12Z_MSC_GDPS_AirTemp_IsbL-0925_LatLon0.15_PT237H.grib2 2026-04-11 16:58 1.1M
20260411T12Z_MSC_GDPS_AirTemp_IsbL-1000_LatLon0.15_PT237H.grib2 2026-04-11 16:58 1.1M
20260411T12Z_MSC_GDPS_Albedo_Sfc_LatLon0.15_PT237H.grib2 2026-04-11 16:58 245K
20260411T12Z_MSC_GDPS_ConvectivePrecip-Accum_Sfc_LatLon0.15_PT237H.grib2 2026-04-11 16:58 3.7M
20260411T12Z_MSC_GDPS_DewPointDepression_AGL-2m_LatLon0.15_PT237H.grib2 2026-04-11 16:58 582K
20260411T12Z_MSC_GDPS_DewPointDepression_IsbL-0500_LatLon0.15_PT237H.grib2 2026-04-11 16:58 1.0M
20260411T12Z_MSC_GDPS_DewPointDepression_IsbL-0700_LatLon0.15_PT237H.grib2 2026-04-11 16:58 1.1M
20260411T12Z_MSC_GDPS_DewPointDepression_IsbL-0850_LatLon0.15_PT237H.grib2 2026-04-11 16:58 1.1M
20260411T12Z_MSC_GDPS_DewPointDepression_IsbL-0925_LatLon0.15_PT237H.grib2 2026-04-11 16:58 1.0M
20260411T12Z_MSC_GDPS_DewPointDepression_IsbL-1000_LatLon0.15_PT237H.grib2 2026-04-11 16:58 961K
20260411T12Z_MSC_GDPS_DewPoint_AGL-2m_LatLon0.15_PT237H.grib2 2026-04-11 16:58 609K
20260411T12Z_MSC_GDPS_DownwardLongwaveRadiationFlux-Accum_Sfc_LatLon0.15_PT237H.grib2 2026-04-11 16:58 739K
20260411T12Z_MSC_GDPS_DownwardShortwaveRadiationFlux-Accum_Sfc_LatLon0.15_PT237H.grib2 2026-04-11 16:58 937K
20260411T12Z_MSC_GDPS_FreezingRain-Accum_Sfc_LatLon0.15_PT237H.grib2 2026-04-11 16:58 349K
20260411T12Z_MSC_GDPS_GeopotentialHeight_IsbL-0001_LatLon0.15_PT237H.grib2 2026-04-11 16:58 520K
20260411T12Z_MSC_GDPS_GeopotentialHeight_IsbL-0005_LatLon0.15_PT237H.grib2 2026-04-11 16:58 486K
20260411T12Z_MSC_GDPS_GeopotentialHeight_IsbL-0500_LatLon0.15_PT237H.grib2 2026-04-11 16:58 533K
20260411T12Z_MSC_GDPS_GeopotentialHeight_IsbL-0700_LatLon0.15_PT237H.grib2 2026-04-11 16:58 688K
20260411T12Z_MSC_GDPS_GeopotentialHeight_IsbL-0850_LatLon0.15_PT237H.grib2 2026-04-11 16:58 711K
20260411T12Z_MSC_GDPS_GeopotentialHeight_IsbL-0925_LatLon0.15_PT237H.grib2 2026-04-11 16:58 733K
20260411T12Z_MSC_GDPS_GeopotentialHeight_IsbL-1000_LatLon0.15_PT237H.grib2 2026-04-11 16:58 788K
20260411T12Z_MSC_GDPS_IcePellets-Accum_Sfc_LatLon0.15_PT237H.grib2 2026-04-11 16:58 238K
20260411T12Z_MSC_GDPS_LatentHeatNetFlux_Sfc_LatLon0.15_PT237H.grib2 2026-04-11 16:58 543K
20260411T12Z_MSC_GDPS_O3MixingRatio_LatLon0.15_PT237H.grib2 2026-04-11 17:07 2.2M
20260411T12Z_MSC_GDPS_O3_EAtm_LatLon0.15_PT237H.grib2 2026-04-11 17:07 2.4M
20260411T12Z_MSC_GDPS_PlanetaryBoundaryLayerHeight_Sfc_LatLon0.15_PT237H.grib2 2026-04-11 16:58 2.5M
20260411T12Z_MSC_GDPS_Precip-Accum_Sfc_LatLon0.15_PT237H.grib2 2026-04-11 16:58 5.1M
20260411T12Z_MSC_GDPS_PrecipRate_Sfc_LatLon0.15_PT237H.grib2 2026-04-11 16:58 2.9M
20260411T12Z_MSC_GDPS_Pressure_MSL_LatLon0.15_PT237H.grib2 2026-04-11 16:58 723K
20260411T12Z_MSC_GDPS_Pressure_Sfc_LatLon0.15_PT237H.grib2 2026-04-11 16:58 1.1M
20260411T12Z_MSC_GDPS_RadiativeTemp_Sfc_LatLon0.15_PT237H.grib2 2026-04-11 16:58 680K
20260411T12Z_MSC_GDPS_Rain-Accum_Sfc_LatLon0.15_PT237H.grib2 2026-04-11 16:58 4.2M
20260411T12Z_MSC_GDPS_RelativeHumidity_AGL-2m_LatLon0.15_PT237H.grib2 2026-04-11 16:58 1.0M
20260411T12Z_MSC_GDPS_Runoff-Accum_Sfc_LatLon0.15_PT237H.grib2 2026-04-11 16:58 114K
20260411T12Z_MSC_GDPS_SensibleHeatNetFlux_Sfc_LatLon0.15_PT237H.grib2 2026-04-11 16:58 652K
20260411T12Z_MSC_GDPS_Snow-Accum_Sfc_LatLon0.15_PT237H.grib2 2026-04-11 16:58 2.0M
20260411T12Z_MSC_GDPS_SnowDepth_Sfc_LatLon0.15_PT237H.grib2 2026-04-11 16:58 1.8M
20260411T12Z_MSC_GDPS_SoilTemp_DBS-0to10cm_LatLon0.15_PT237H.grib2 2026-04-11 16:58 511K
20260411T12Z_MSC_GDPS_SoilTemp_Sfc_LatLon0.15_PT237H.grib2 2026-04-11 16:58 581K
20260411T12Z_MSC_GDPS_SoilVolumetricWaterContent_DBS-0to10cm_LatLon0.15_PT237H.grib2 2026-04-11 16:58 552K
20260411T12Z_MSC_GDPS_SoilVolumetricWaterContent_DBS-0to1cm_LatLon0.15_PT237H.grib2 2026-04-11 16:58 647K
20260411T12Z_MSC_GDPS_SpecificHumidity_AGL-120m_LatLon0.15_PT237H.grib2 2026-04-11 16:58 1.1M
20260411T12Z_MSC_GDPS_SpecificHumidity_AGL-2m_LatLon0.15_PT237H.grib2 2026-04-11 16:58 1.2M
20260411T12Z_MSC_GDPS_SpecificHumidity_AGL-40m_LatLon0.15_PT237H.grib2 2026-04-11 16:58 1.1M
20260411T12Z_MSC_GDPS_SpecificHumidity_AGL-80m_LatLon0.15_PT237H.grib2 2026-04-11 16:58 1.1M
20260411T12Z_MSC_GDPS_SpecificHumidity_IsbL-0001_LatLon0.15_PT237H.grib2 2026-04-11 16:58 1.0M
20260411T12Z_MSC_GDPS_SpecificHumidity_IsbL-0005_LatLon0.15_PT237H.grib2 2026-04-11 16:58 965K
20260411T12Z_MSC_GDPS_SpecificHumidity_IsbL-0500_LatLon0.15_PT237H.grib2 2026-04-11 16:58 1.4M
20260411T12Z_MSC_GDPS_SpecificHumidity_IsbL-0700_LatLon0.15_PT237H.grib2 2026-04-11 16:58 1.6M
20260411T12Z_MSC_GDPS_SpecificHumidity_IsbL-0850_LatLon0.15_PT237H.grib2 2026-04-11 16:58 1.9M
20260411T12Z_MSC_GDPS_SpecificHumidity_IsbL-0925_LatLon0.15_PT237H.grib2 2026-04-11 16:58 1.6M
20260411T12Z_MSC_GDPS_SpecificHumidity_IsbL-1000_LatLon0.15_PT237H.grib2 2026-04-11 16:58 1.5M
20260411T12Z_MSC_GDPS_SpecificHumidity_Sfc_LatLon0.15_PT237H.grib2 2026-04-11 16:58 669K
20260411T12Z_MSC_GDPS_Thickness_IsbL-0850to0700_LatLon0.15_PT237H.grib2 2026-04-11 16:58 468K
20260411T12Z_MSC_GDPS_Thickness_IsbL-1000to0500_LatLon0.15_PT237H.grib2 2026-04-11 16:58 379K
20260411T12Z_MSC_GDPS_Thickness_IsbL-1000to0850_LatLon0.15_PT237H.grib2 2026-04-11 16:58 491K
20260411T12Z_MSC_GDPS_TotalCloudCover_Sfc_LatLon0.15_PT237H.grib2 2026-04-11 16:58 813K
20260411T12Z_MSC_GDPS_UVIndex-ClearSky_Sfc_LatLon0.15_PT237H.grib2 2026-04-11 17:07 1.1M
20260411T12Z_MSC_GDPS_UVIndex_Sfc_LatLon0.15_PT237H.grib2 2026-04-11 17:07 1.4M
20260411T12Z_MSC_GDPS_UpwardLongwaveRadiationFlux_NTAtm_LatLon0.15_PT237H.grib2 2026-04-11 16:58 831K
20260411T12Z_MSC_GDPS_VerticalVelocity_IsbL-0500_LatLon0.15_PT237H.grib2 2026-04-11 16:58 1.1M
20260411T12Z_MSC_GDPS_VerticalVelocity_IsbL-0700_LatLon0.15_PT237H.grib2 2026-04-11 16:58 1.2M
20260411T12Z_MSC_GDPS_VerticalVelocity_IsbL-0850_LatLon0.15_PT237H.grib2 2026-04-11 16:58 1.3M
20260411T12Z_MSC_GDPS_WindDir_AGL-10m_LatLon0.15_PT237H.grib2 2026-04-11 16:58 1.3M
20260411T12Z_MSC_GDPS_WindDir_AGL-120m_LatLon0.15_PT237H.grib2 2026-04-11 16:58 1.3M
20260411T12Z_MSC_GDPS_WindDir_AGL-40m_LatLon0.15_PT237H.grib2 2026-04-11 16:58 1.4M
20260411T12Z_MSC_GDPS_WindDir_AGL-80m_LatLon0.15_PT237H.grib2 2026-04-11 16:58 1.4M
20260411T12Z_MSC_GDPS_WindDir_IsbL-0001_LatLon0.15_PT237H.grib2 2026-04-11 16:58 646K
20260411T12Z_MSC_GDPS_WindDir_IsbL-0005_LatLon0.15_PT237H.grib2 2026-04-11 16:58 796K
20260411T12Z_MSC_GDPS_WindDir_IsbL-0500_LatLon0.15_PT237H.grib2 2026-04-11 16:58 1.3M
20260411T12Z_MSC_GDPS_WindDir_IsbL-0700_LatLon0.15_PT237H.grib2 2026-04-11 16:58 1.6M
20260411T12Z_MSC_GDPS_WindDir_IsbL-0850_LatLon0.15_PT237H.grib2 2026-04-11 16:58 1.9M
20260411T12Z_MSC_GDPS_WindDir_IsbL-0925_LatLon0.15_PT237H.grib2 2026-04-11 16:58 2.0M
20260411T12Z_MSC_GDPS_WindDir_IsbL-1000_LatLon0.15_PT237H.grib2 2026-04-11 16:58 2.0M
20260411T12Z_MSC_GDPS_WindGust-Max_AGL-10m_LatLon0.15_PT237H.grib2 2026-04-11 16:58 2.2M
20260411T12Z_MSC_GDPS_WindGust-Min_AGL-10m_LatLon0.15_PT237H.grib2 2026-04-11 16:58 2.2M
20260411T12Z_MSC_GDPS_WindGust_AGL-10m_LatLon0.15_PT237H.grib2 2026-04-11 16:58 2.2M
20260411T12Z_MSC_GDPS_WindSpeed_AGL-10m_LatLon0.15_PT237H.grib2 2026-04-11 16:58 1.1M
20260411T12Z_MSC_GDPS_WindSpeed_AGL-120m_LatLon0.15_PT237H.grib2 2026-04-11 16:58 1.2M
20260411T12Z_MSC_GDPS_WindSpeed_AGL-40m_LatLon0.15_PT237H.grib2 2026-04-11 16:58 1.2M
20260411T12Z_MSC_GDPS_WindSpeed_AGL-80m_LatLon0.15_PT237H.grib2 2026-04-11 16:58 1.2M
20260411T12Z_MSC_GDPS_WindSpeed_IsbL-0001_LatLon0.15_PT237H.grib2 2026-04-11 16:58 636K
20260411T12Z_MSC_GDPS_WindSpeed_IsbL-0005_LatLon0.15_PT237H.grib2 2026-04-11 16:58 604K
20260411T12Z_MSC_GDPS_WindSpeed_IsbL-0500_LatLon0.15_PT237H.grib2 2026-04-11 16:58 1.1M
20260411T12Z_MSC_GDPS_WindSpeed_IsbL-0700_LatLon0.15_PT237H.grib2 2026-04-11 16:58 1.5M
20260411T12Z_MSC_GDPS_WindSpeed_IsbL-0850_LatLon0.15_PT237H.grib2 2026-04-11 16:58 1.8M
20260411T12Z_MSC_GDPS_WindSpeed_IsbL-0925_LatLon0.15_PT237H.grib2 2026-04-11 16:58 1.9M
20260411T12Z_MSC_GDPS_WindSpeed_IsbL-1000_LatLon0.15_PT237H.grib2 2026-04-11 16:58 1.8M
20260411T12Z_MSC_GDPS_WindU_AGL-10m_LatLon0.15_PT237H.grib2 2026-04-11 16:58 1.3M
20260411T12Z_MSC_GDPS_WindU_AGL-120m_LatLon0.15_PT237H.grib2 2026-04-11 16:58 959K
20260411T12Z_MSC_GDPS_WindU_AGL-40m_LatLon0.15_PT237H.grib2 2026-04-11 16:58 955K
20260411T12Z_MSC_GDPS_WindU_AGL-80m_LatLon0.15_PT237H.grib2 2026-04-11 16:58 959K
20260411T12Z_MSC_GDPS_WindU_IsbL-0001_LatLon0.15_PT237H.grib2 2026-04-11 16:58 639K
20260411T12Z_MSC_GDPS_WindU_IsbL-0005_LatLon0.15_PT237H.grib2 2026-04-11 16:58 681K
20260411T12Z_MSC_GDPS_WindU_IsbL-0500_LatLon0.15_PT237H.grib2 2026-04-11 16:58 1.1M
20260411T12Z_MSC_GDPS_WindU_IsbL-0700_LatLon0.15_PT237H.grib2 2026-04-11 16:58 1.2M
20260411T12Z_MSC_GDPS_WindU_IsbL-0850_LatLon0.15_PT237H.grib2 2026-04-11 16:58 1.4M
20260411T12Z_MSC_GDPS_WindU_IsbL-0925_LatLon0.15_PT237H.grib2 2026-04-11 16:58 1.4M
20260411T12Z_MSC_GDPS_WindU_IsbL-1000_LatLon0.15_PT237H.grib2 2026-04-11 16:58 1.4M
20260411T12Z_MSC_GDPS_WindV_AGL-10m_LatLon0.15_PT237H.grib2 2026-04-11 16:58 1.3M
20260411T12Z_MSC_GDPS_WindV_AGL-120m_LatLon0.15_PT237H.grib2 2026-04-11 16:58 962K
20260411T12Z_MSC_GDPS_WindV_AGL-40m_LatLon0.15_PT237H.grib2 2026-04-11 16:58 958K
20260411T12Z_MSC_GDPS_WindV_AGL-80m_LatLon0.15_PT237H.grib2 2026-04-11 16:58 963K
20260411T12Z_MSC_GDPS_WindV_IsbL-0001_LatLon0.15_PT237H.grib2 2026-04-11 16:58 693K
20260411T12Z_MSC_GDPS_WindV_IsbL-0005_LatLon0.15_PT237H.grib2 2026-04-11 16:58 841K
20260411T12Z_MSC_GDPS_WindV_IsbL-0500_LatLon0.15_PT237H.grib2 2026-04-11 16:58 1.1M
20260411T12Z_MSC_GDPS_WindV_IsbL-0700_LatLon0.15_PT237H.grib2 2026-04-11 16:58 1.2M
20260411T12Z_MSC_GDPS_WindV_IsbL-0850_LatLon0.15_PT237H.grib2 2026-04-11 16:58 1.4M
20260411T12Z_MSC_GDPS_WindV_IsbL-0925_LatLon0.15_PT237H.grib2 2026-04-11 16:58 1.4M
20260411T12Z_MSC_GDPS_WindV_IsbL-1000_LatLon0.15_PT237H.grib2 2026-04-11 16:58 1.4M